Time,TemperatureF,DewpointF,PressureIn,WindDirection,WindDirectionDegrees,WindSpeedMPH,WindSpeedGustMPH,Humidity,HourlyPrecipIn,Conditions,Clouds,dailyrainin,SolarRadiationWatts/m^2,SoftwareType,DateUTC
2013-06-16 00:00:00,67.0,61.0,-100.00,South,180,6.0,-999.0,81,-99.99,,,-99.99,0.000000,,2013-06-16 04:00:00,
2013-06-16 00:34:00,67.0,61.0,-100.00,South,180,6.0,-999.0,81,-99.99,,,-99.99,0.000000,,2013-06-16 04:34:00,
2013-06-16 00:43:00,67.0,61.0,-100.00,South,180,6.0,-999.0,81,-99.99,,,-99.99,0.000000,,2013-06-16 04:43:00,
2013-06-16 00:53:00,67.0,61.0,-100.00,South,180,6.0,-999.0,81,-99.99,,,-99.99,0.000000,,2013-06-16 04:53:00,
2013-06-16 02:00:00,66.0,64.0,-100.00,SSW,202,5.0,-999.0,91,-99.99,,,-99.99,0.000000,,2013-06-16 06:00:00,
2013-06-16 02:33:00,66.0,64.0,-100.00,SSW,202,5.0,-999.0,91,-99.99,,,-99.99,0.000000,,2013-06-16 06:33:00,
2013-06-16 02:43:00,66.0,64.0,-100.00,SSW,202,5.0,-999.0,91,-99.99,,,-99.99,0.000000,,2013-06-16 06:43:00,
2013-06-16 02:52:00,66.0,64.0,-100.00,SSW,202,5.0,-999.0,91,-99.99,,,-99.99,0.000000,,2013-06-16 06:52:00,
2013-06-16 04:00:00,65.0,62.0,-100.00,West,270,7.0,-999.0,91,-99.99,,,-99.99,0.000000,,2013-06-16 08:00:00,
2013-06-16 04:34:00,65.0,62.0,-100.00,West,270,7.0,-999.0,91,-99.99,,,-99.99,0.000000,,2013-06-16 08:34:00,
2013-06-16 04:43:00,65.0,62.0,-100.00,West,270,7.0,-999.0,91,-99.99,,,-99.99,0.000000,,2013-06-16 08:43:00,
2013-06-16 04:54:00,65.0,62.0,-100.00,West,270,7.0,-999.0,91,-99.99,,,-99.99,0.000000,,2013-06-16 08:54:00,
2013-06-16 05:00:00,65.0,62.0,-100.00,West,270,5.0,-999.0,89,-99.99,,,-99.99,0.000000,,2013-06-16 09:00:00,
2013-06-16 05:33:00,65.0,62.0,-100.00,West,270,5.0,-999.0,89,-99.99,,,-99.99,0.000000,,2013-06-16 09:33:00,
2013-06-16 05:43:00,65.0,62.0,-100.00,West,270,5.0,-999.0,89,-99.99,,,-99.99,0.000000,,2013-06-16 09:43:00,
2013-06-16 05:52:00,65.0,62.0,-100.00,West,270,5.0,-999.0,89,-99.99,,,-99.99,0.000000,,2013-06-16 09:52:00,
2013-06-16 06:00:00,64.0,62.0,-100.00,WSW,247,3.0,-999.0,92,-99.99,,,-99.99,0.000000,,2013-06-16 10:00:00,
2013-06-16 06:33:00,64.0,62.0,-100.00,WSW,247,3.0,-999.0,92,-99.99,,,-99.99,0.000000,,2013-06-16 10:33:00,
2013-06-16 06:43:00,64.0,62.0,-100.00,WSW,247,3.0,-999.0,92,-99.99,,,-99.99,0.000000,,2013-06-16 10:43:00,
2013-06-16 06:54:00,64.0,62.0,-100.00,WSW,247,3.0,-999.0,92,-99.99,,,-99.99,0.000000,,2013-06-16 10:54:00,
2013-06-16 07:00:00,65.0,62.0,-100.00,West,270,3.0,-999.0,92,-99.99,,,-99.99,13.920000,,2013-06-16 11:00:00,
2013-06-16 07:34:00,65.0,62.0,-100.00,West,270,3.0,-999.0,92,-99.99,,,-99.99,13.920000,,2013-06-16 11:34:00,
2013-06-16 07:43:00,65.0,62.0,-100.00,West,270,3.0,-999.0,92,-99.99,,,-99.99,13.920000,,2013-06-16 11:43:00,
2013-06-16 07:53:00,65.0,62.0,-100.00,West,270,3.0,-999.0,92,-99.99,,,-99.99,13.920000,,2013-06-16 11:53:00,
2013-06-16 08:00:00,66.0,63.0,-100.00,WSW,247,2.0,-999.0,90,-99.99,,,-99.99,85.839996,,2013-06-16 12:00:00,
2013-06-16 08:33:00,66.0,63.0,-100.00,WSW,247,2.0,-999.0,90,-99.99,,,-99.99,85.839996,,2013-06-16 12:33:00,
2013-06-16 08:43:00,66.0,63.0,-100.00,WSW,247,2.0,-999.0,90,-99.99,,,-99.99,85.839996,,2013-06-16 12:43:00,
2013-06-16 08:53:00,66.0,63.0,-100.00,WSW,247,2.0,-999.0,90,-99.99,,,-99.99,85.839996,,2013-06-16 12:53:00,
2013-06-16 10:00:00,70.0,64.0,-100.00,WNW,292,7.0,-999.0,81,-99.99,,,-99.99,383.959991,,2013-06-16 14:00:00,
2013-06-16 10:34:00,70.0,64.0,-100.00,WNW,292,7.0,-999.0,81,-99.99,,,-99.99,383.959991,,2013-06-16 14:34:00,
2013-06-16 10:44:00,70.0,64.0,-100.00,WNW,292,7.0,-999.0,81,-99.99,,,-99.99,383.959991,,2013-06-16 14:44:00,
2013-06-16 10:53:00,70.0,64.0,-100.00,WNW,292,7.0,-999.0,81,-99.99,,,-99.99,383.959991,,2013-06-16 14:53:00,
2013-06-16 11:00:00,70.0,64.0,-100.00,NW,315,7.0,-999.0,79,-99.99,,,-99.99,497.640015,,2013-06-16 15:00:00,
2013-06-16 11:34:00,70.0,64.0,-100.00,NW,315,7.0,-999.0,79,-99.99,,,-99.99,497.640015,,2013-06-16 15:34:00,
2013-06-16 11:43:00,70.0,64.0,-100.00,NW,315,7.0,-999.0,79,-99.99,,,-99.99,497.640015,,2013-06-16 15:43:00,
2013-06-16 11:53:00,70.0,64.0,-100.00,NW,315,7.0,-999.0,79,-99.99,,,-99.99,497.640015,,2013-06-16 15:53:00,
2013-06-16 12:00:00,72.0,64.0,-100.00,WNW,292,6.0,-999.0,75,-99.99,,,-99.99,723.840027,,2013-06-16 16:00:00,
2013-06-16 12:33:00,72.0,64.0,-100.00,WNW,292,6.0,-999.0,75,-99.99,,,-99.99,723.840027,,2013-06-16 16:33:00,
2013-06-16 12:43:00,72.0,64.0,-100.00,WNW,292,6.0,-999.0,75,-99.99,,,-99.99,723.840027,,2013-06-16 16:43:00,
2013-06-16 12:53:00,72.0,64.0,-100.00,WNW,292,6.0,-999.0,75,-99.99,,,-99.99,723.840027,,2013-06-16 16:53:00,
2013-06-16 13:00:00,73.0,63.0,-100.00,WNW,292,6.0,-999.0,70,-99.99,,,-99.99,788.799988,,2013-06-16 17:00:00,
2013-06-16 13:34:00,73.0,63.0,-100.00,WNW,292,6.0,-999.0,70,-99.99,,,-99.99,788.799988,,2013-06-16 17:34:00,
2013-06-16 13:43:00,73.0,63.0,-100.00,WNW,292,6.0,-999.0,70,-99.99,,,-99.99,788.799988,,2013-06-16 17:43:00,
2013-06-16 13:53:00,73.0,63.0,-100.00,WNW,292,6.0,-999.0,70,-99.99,,,-99.99,788.799988,,2013-06-16 17:53:00,
2013-06-16 14:00:00,75.0,63.0,-100.00,WNW,292,5.0,-999.0,66,-99.99,,,-99.99,813.159973,,2013-06-16 18:00:00,
2013-06-16 14:34:00,75.0,63.0,-100.00,WNW,292,5.0,-999.0,66,-99.99,,,-99.99,813.159973,,2013-06-16 18:34:00,
2013-06-16 14:43:00,75.0,63.0,-100.00,WNW,292,5.0,-999.0,66,-99.99,,,-99.99,813.159973,,2013-06-16 18:43:00,
2013-06-16 14:52:00,75.0,63.0,-100.00,WNW,292,5.0,-999.0,66,-99.99,,,-99.99,813.159973,,2013-06-16 18:52:00,
2013-06-16 15:00:00,76.0,63.0,-100.00,WNW,292,6.0,-999.0,63,-99.99,,,-99.99,778.359985,,2013-06-16 19:00:00,
2013-06-16 15:34:00,76.0,63.0,-100.00,WNW,292,6.0,-999.0,63,-99.99,,,-99.99,778.359985,,2013-06-16 19:34:00,
2013-06-16 15:43:00,76.0,63.0,-100.00,WNW,292,6.0,-999.0,63,-99.99,,,-99.99,778.359985,,2013-06-16 19:43:00,
2013-06-16 15:54:00,76.0,63.0,-100.00,WNW,292,6.0,-999.0,63,-99.99,,,-99.99,778.359985,,2013-06-16 19:54:00,
2013-06-16 16:00:00,77.0,61.0,-100.00,WNW,292,6.0,-999.0,59,-99.99,,,-99.99,757.479980,,2013-06-16 20:00:00,
2013-06-16 16:34:00,77.0,61.0,-100.00,WNW,292,6.0,-999.0,59,-99.99,,,-99.99,757.479980,,2013-06-16 20:34:00,
2013-06-16 16:43:00,77.0,61.0,-100.00,WNW,292,6.0,-999.0,59,-99.99,,,-99.99,757.479980,,2013-06-16 20:43:00,
2013-06-16 16:53:00,77.0,61.0,-100.00,WNW,292,6.0,-999.0,59,-99.99,,,-99.99,757.479980,,2013-06-16 20:53:00,
2013-06-16 17:00:00,78.0,60.0,-100.00,West,270,6.0,-999.0,54,-99.99,,,-99.99,668.159973,,2013-06-16 21:00:00,
2013-06-16 17:33:00,78.0,60.0,-100.00,West,270,6.0,-999.0,54,-99.99,,,-99.99,668.159973,,2013-06-16 21:33:00,
2013-06-16 17:42:00,78.0,60.0,-100.00,West,270,6.0,-999.0,54,-99.99,,,-99.99,668.159973,,2013-06-16 21:42:00,
2013-06-16 17:53:00,78.0,60.0,-100.00,West,270,6.0,-999.0,54,-99.99,,,-99.99,668.159973,,2013-06-16 21:53:00,
2013-06-16 19:00:00,79.0,54.0,-100.00,West,270,3.0,-999.0,41,-99.99,,,-99.99,385.119995,,2013-06-16 23:00:00,
2013-06-16 19:32:00,79.0,54.0,-100.00,West,270,3.0,-999.0,41,-99.99,,,-99.99,385.119995,,2013-06-16 23:32:00,
2013-06-16 19:42:00,79.0,54.0,-100.00,West,270,3.0,-999.0,41,-99.99,,,-99.99,385.119995,,2013-06-16 23:42:00,
2013-06-16 19:52:00,79.0,54.0,-100.00,West,270,3.0,-999.0,41,-99.99,,,-99.99,385.119995,,2013-06-16 23:52:00,
2013-06-16 21:00:00,77.0,62.0,-100.00,SSE,157,0.0,-999.0,59,-99.99,,,-99.99,75.400002,,2013-06-17 01:00:00,
2013-06-16 21:32:00,77.0,62.0,-100.00,SSE,157,0.0,-999.0,59,-99.99,,,-99.99,75.400002,,2013-06-17 01:32:00,
2013-06-16 21:43:00,77.0,62.0,-100.00,SSE,157,0.0,-999.0,59,-99.99,,,-99.99,75.400002,,2013-06-17 01:43:00,
2013-06-16 21:53:00,77.0,62.0,-100.00,SSE,157,0.0,-999.0,59,-99.99,,,-99.99,75.400002,,2013-06-17 01:53:00,
2013-06-16 23:00:00,63.0,60.0,-100.00,NNE,22,0.0,-999.0,92,-99.99,,,-99.99,0.000000,,2013-06-17 03:00:00,
2013-06-16 23:33:00,63.0,60.0,-100.00,NNE,22,0.0,-999.0,92,-99.99,,,-99.99,0.000000,,2013-06-17 03:33:00,
2013-06-16 23:44:00,63.0,60.0,-100.00,NNE,22,0.0,-999.0,92,-99.99,,,-99.99,0.000000,,2013-06-17 03:44:00,
2013-06-16 23:54:00,63.0,60.0,-100.00,NNE,22,0.0,-999.0,92,-99.99,,,-99.99,0.000000,,2013-06-17 03:54:00,